CAPE
518 34 0 0 0 0 0 0 0 0 0 0 0 0 0 0 0 0 0 0 0 0 0 0 0 0 0 0 0 0 0 0 0 0 0 0 0 0 0 0 0 0 0
52 0 0 0 0 0 0 0 0 0 0 0 0 0 0 0 0 0 0 0 0 0 0 0 0 0 0 0 0 0 0 0 0 0 0 0 0 0 0 0 0 0 0
0 0 0 0 0 0 0 0 0 0 0 0 0 0 0 0 0 0 0 0 0 0 0 0 0 0 0 0 0 0 0 0 0 0 0 0 0 0 0 0 0 0 0
0 0 0 0 0 0 0 0 0 0 0 0 0 0 0 0 0 0 0 0 0 0 0 0 0 0 0 0 0 0 0 0 0 0 0 0 2 4 5 0 0 0 0
0 0 0 0 0 0 0 0 0 0 0 0 0 0 0 0 0 0 0 0 0 0 0 0 0 0 0 0 0 0 0 0 0 0 0 0 1 6 6 6 0 0 0
0 0 0 0 0 0 0 0 0 0 0 0 0 0 0 0 0 0 0 0 0 0 0 0 0 0 0 0 0 0 0 0 0 0 0 0 0 12 9 16 10 2 3
0 0 0 0 0 0 0 0 0 0 0 0 0 0 0 0 0 0 0 0 0 0 0 0 0 0 0 0 0 0 0 0 0 0 0 0 0 6 9 9 1 3 5
0 0 0 0 0 0 0 0 0 0 0 0 0 0 0 0 0 0 0 0 0 0 0 0 0 0 0 0 0 0 0 0 0 0 0 0 0 0 6 10 0 0 1
0 0 0 0 0 0 0 0 0 0 0 0 0 0 0 0 0 0 0 0 0 0 0 0 0 0 0 0 0 0 0 0 0 0 0 0 0 0 6 0 0 0 1
0 0 0 0 0 0 0 0 0 0 0 0 0 0 0 0 0 0 0 0 0 0 0 0 0 0 0 0 0 0 0 0 0 0 0 0 0 0 0 0 2 3 4
0 0 0 0 0 0 0 0 0 0 0 0 0 0 0 0 0 0 0 0 0 0 0 0 0 0 0 0 0 0 0 0 0 0 0 0 0 0 0 0 0 7 0
0 0 0 0 0 0 0 0 0 0 0 0 0 0 0 0 0 0 0 0 0 0 0 0 0 0 0 0 0 0 0 0 0 0 0 0 0 0 0 0 0 0 1
0 0 0 0 0 0 0 0 0 0 0 0 0 0 0 0 0 0 0 0 0 0 0 0 0 0 0 0 0 0 0 0 0 0 0 0 0 0 0 0 0 0 0
0 0 0 0 0 0 0 0 0 0 0 0 0 0 0 0 0 0 0 0 0 0 0 0 0 0 0 0 0 0 0 0 0 0 0 0 0 0 0 0 0 0 0
0 0 0 0 0 0 0 0 0 0 0 0 0 0 0 0 0 0 0 0 0 0 0 0 0 0 0 0 0 0 0 0 0 0 0 0 0 0 0 0 0 0 0
0 0 0 0 0 0 0 0 0 0 0 0 0 0 0 0 0 0 0 0 0 0 0 0 0 0 0 0 0 0 0 0 0 0 0 0 0 0 0 0 0 0 0
0 0 0 0 0 0 0 0 0 0 0 0 0 0 0 0 0 0 0 0 0 0 0 0 0 0 0 0 0 0 0 0 0 0 0 0 0 0 0 0 0 0 0
0 0 0 0 0 0 0 0 0 0 0 0 0 0 0 0 0 0 0 0 0 0 0 0 0 0 0 0 0 0 0 0 0 0 0 0 0 0 0 0 0 0 0
0 0 0 0 0 0 0 0 0 0 0 0 0 0 0 0 0 0 0 0 0 0 0 0 0 0 0 0 0 0 0 0 0 0 0 0 0 0 0 0 0 0 0
0 0 0 0 0 0 0 0 0 0 0 0 0 0 0 0 0 0 0 0 0 0 0 0 0 0 0 0 0 0 0 0 0 0 0 0 0 0 0 0 0 0 0
0 0 0 0 0 0 0 0 0 0 0 0 0 0 0 0 0 0 0 0 0 0 0 0 0 0 0 0 0 0 0 0 0 0 0 0 0 0 0 0 0 0 0
0 0 0 0 0 0 0 0 0 0 0 0 0 0 0 0 0 0 0 0 0 0 0 0 0 0 0 0 0 0 0 0 0 0 0 0 0 0 0 0 0 0 0
0 0 0 0 0 0 0 0 0 0 0 0 0 0 0 0 0 0 0 0 0 0 0 0 0 0 0 0 0 0 0 0 0 0 0 0 0 0 0 0 0 0 0
0 0 0 0 0 0 0 0 0 0 0 0 0 0 0 0 0 0 0 0 0 0 0 0 0 0 0 0 0 0 0 0 0 0 0 0 0 0 0 0 0 0 0
0 0 0 0 0 0 0 0 0 0 0 0 0 0 0 0 0 0 0 0 0 0 0 0 0 0 0 0 0 0 0 0 0 0 0 0 0 0 0 0 0 0 0
0 0 0 0 0 0 0 0 0 0 0 0 0 0 0 0 0 0 0 0 0 0 0 0 0 0 0 0 0 0 0 0 0 0 0 0 0 0 0 0 0 0 0
CIN
-175 -407 -67 0 0 0 0 0 0 0 0 0 0 0 0 0 0 0 0 0 0 0 0 0 0 0 0 0 0 0 0 0 0 0 0 0 0 0 0 0 0 0 0
-373 -277 0 0 0 0 0 0 0 0 0 0 0 0 0 0 0 0 0 0 0 0 0 0 0 0 0 0 0 0 0 0 0 0 0 0 0 0 0 0 0 0 0
0 0 0 0 0 0 0 0 0 0 0 0 0 0 0 0 0 0 0 0 0 0 0 0 0 0 0 0 0 0 0 0 0 0 0 0 -1 0 0 0 0 0 0
0 0 0 0 0 0 0 0 0 0 0 0 0 0 0 0 0 0 0 0 0 0 0 0 0 0 0 0 0 0 0 0 0 0 0 0 -10 -10 -19 -7 0 0 0
0 0 0 0 0 0 0 0 0 0 0 0 0 0 0 0 0 0 0 0 0 0 0 0 0 0 0 0 0 0 0 0 0 0 0 0 -11 -12 -8 -25 -20 -16 -6
0 0 0 0 0 0 0 0 0 0 0 0 0 0 0 0 0 0 0 0 0 0 0 0 0 0 0 0 0 0 0 0 0 0 0 0 0 -21 -13 -23 -24 -15 -4
0 0 0 0 0 0 0 0 0 0 0 0 0 0 0 0 0 0 0 0 0 0 0 0 0 0 0 0 0 0 0 0 0 0 0 0 0 -19 -25 -17 -11 -31 -10
0 0 0 0 0 0 0 0 0 0 0 0 0 0 0 0 0 0 0 0 0 0 0 0 0 0 0 0 0 0 0 0 0 0 0 0 0 0 -38 -25 0 0 -29
0 0 0 0 0 0 0 0 0 0 0 0 0 0 0 0 0 0 0 0 0 0 0 0 0 0 0 0 0 0 0 0 0 0 0 0 0 0 -24 0 0 0 -3
0 0 0 0 0 0 0 0 0 0 0 0 0 0 0 0 0 0 0 0 0 0 0 0 0 0 0 0 0 0 0 0 0 0 0 0 0 0 0 0 -25 -20 -27
0 0 0 0 0 0 0 0 0 0 0 0 0 0 0 0 0 0 0 0 0 0 0 0 0 0 0 0 0 0 0 0 0 0 0 0 0 0 0 0 0 -23 -5
0 0 0 0 0 0 0 0 0 0 0 0 0 0 0 0 0 0 0 0 0 0 0 0 0 0 0 0 0 0 0 0 0 0 0 0 0 0 0 0 0 0 -13
0 0 0 0 0 0 0 0 0 0 0 0 0 0 0 0 0 0 0 0 0 0 0 0 0 0 0 0 0 0 0 0 0 0 0 0 0 0 0 0 0 0 0
0 0 0 0 0 0 0 0 0 0 0 0 0 0 0 0 0 0 0 0 0 0 0 0 0 0 0 0 0 0 0 0 0 0 0 0 0 0 0 0 0 0 0
0 0 0 0 0 0 0 0 0 0 0 0 0 0 0 0 0 0 0 0 0 0 0 0 0 0 0 0 0 0 0 0 0 0 0 0 0 0 0 0 0 0 0
0 0 0 0 0 0 0 0 0 0 0 0 0 0 0 0 0 0 0 0 0 0 0 0 0 0 0 0 0 0 0 0 0 0 0 0 0 0 0 0 0 0 0
0 0 0 0 0 0 0 0 0 0 0 0 0 0 0 0 0 0 0 0 0 0 0 0 0 0 0 0 0 0 0 0 0 0 0 0 0 0 0 0 0 0 0
0 0 0 0 0 0 0 0 0 0 0 0 0 0 0 0 0 0 0 0 0 0 0 0 0 0 0 0 0 0 0 0 0 0 0 0 0 0 0 0 0 0 0
0 0 0 0 0 0 0 0 0 0 0 0 0 0 0 0 0 0 0 0 0 0 0 0 0 0 0 0 0 0 0 0 0 0 0 0 0 0 0 0 0 0 0
0 0 0 0 0 0 0 0 0 0 0 0 0 0 0 0 0 0 0 0 0 0 0 0 0 0 0 0 0 0 0 0 0 0 0 0 0 0 0 0 0 0 0
0 0 0 0 0 0 0 0 0 0 0 0 0 0 0 0 0 0 0 0 0 0 0 0 0 0 0 0 0 0 0 0 0 0 0 0 0 0 0 0 0 0 0
0 0 0 0 0 0 0 0 0 0 0 0 0 0 0 0 0 0 0 0 0 0 0 0 0 0 0 0 0 0 0 0 0 0 0 0 0 0 0 0 0 0 0
0 0 0 0 0 0 0 0 0 0 0 0 0 0 0 0 0 0 0 0 0 0 0 0 0 0 0 0 0 0 0 0 0 0 0 0 0 0 0 0 0 0 0
0 0 0 0 0 0 0 0 0 0 0 0 0 0 0 0 0 0 0 0 0 0 0 0 0 0 0 0 0 0 0 0 0 0 0 0 0 0 0 0 0 0 0
0 0 0 0 0 0 0 0 0 0 0 0 0 0 0 0 0 0 0 0 0 0 0 0 0 0 0 0 0 0 0 0 0 0 0 0 0 0 0 0 0 0 0
0 0 0 0 0 0 0 0 0 0 0 0 0 0 0 0 0 0 0 0 0 0 0 0 0 0 0 0 0 0 0 0 0 0 0 0 0 0 0 0 0 0 0
Wind_Speed
18 16 13 11 10 8 5 5 5 6 7 8 8 8 10 10 12 13 15 16 18 19 20 22 24 25 26 26 26 25 27 26 26 25 26 28 31 36 37 38 35 35 35
18 16 13 11 9 7 6 5 6 6 7 7 7 8 8 9 11 12 14 16 17 18 19 22 24 24 26 26 25 26 26 26 26 28 27 29 33 35 35 38 36 36 36
20 16 14 11 11 8 6 5 5 6 7 7 7 7 7 8 10 12 14 16 17 18 19 21 24 25 27 25 25 26 26 25 25 26 27 27 29 33 35 37 38 37 35
20 16 13 12 11 8 5 5 4 5 6 7 6 6 6 8 9 12 14 16 17 18 20 22 24 26 25 25 26 25 25 26 25 26 28 28 30 31 34 38 41 39 36
20 16 13 11 11 7 6 4 3 4 6 8 8 6 7 7 9 12 13 15 16 18 19 22 25 26 25 25 25 27 25 26 26 27 29 30 30 32 37 37 37 36 34
20 15 13 13 11 8 6 5 3 5 7 8 7 6 6 8 9 11 12 14 16 18 19 22 24 27 27 27 26 26 23 26 27 28 29 31 31 32 32 37 37 36 38
16 20 17 15 10 9 6 4 5 7 7 6 5 5 6 7 9 11 12 13 16 18 20 23 24 26 27 28 28 26 27 26 24 25 29 31 30 31 31 35 36 33 33
24 20 18 14 11 8 6 5 5 6 5 4 4 4 6 7 8 10 12 12 15 17 21 22 24 26 28 28 28 28 29 29 29 27 28 30 29 29 28 31 31 30 29
23 18 18 14 12 8 7 7 6 6 5 4 5 5 6 7 9 8 11 12 14 17 20 21 23 25 27 28 28 28 29 30 30 31 32 33 34 31 30 34 36 37 35
23 24 19 13 10 9 8 8 7 6 5 5 5 6 7 8 10 10 10 12 14 17 20 21 23 25 26 27 28 28 29 29 30 32 32 34 34 30 34 34 33 36 36
26 23 21 13 10 9 9 7 6 4 6 6 6 6 8 9 11 11 10 11 14 17 20 21 21 25 25 27 27 28 27 27 30 31 32 34 34 32 34 35 33 31 34
25 22 15 11 9 9 9 6 4 5 6 6 5 6 8 9 11 12 12 13 14 17 20 21 21 22 25 27 28 29 29 30 30 31 32 33 34 32 36 37 36 35 30
23 17 14 12 9 7 7 6 6 5 5 6 6 6 7 9 10 12 14 15 17 18 20 20 21 21 24 27 29 29 30 30 31 31 32 32 32 33 33 39 36 35 34
21 16 13 10 9 7 6 5 5 5 5 7 6 5 6 8 9 11 14 15 17 18 19 20 21 23 24 26 27 29 30 30 31 31 31 32 33 35 35 35 36 35 34
18 16 12 10 8 7 6 6 5 2 6 7 5 5 7 8 9 12 14 15 16 17 18 19 21 23 24 25 27 29 30 31 32 32 33 33 34 34 35 35 37 34 35
18 15 13 11 9 8 6 5 5 2 4 5 7 7 7 9 11 13 15 15 16 17 19 19 20 22 23 24 26 27 29 30 31 31 32 33 33 34 35 34 36 35 36
18 15 13 11 9 8 6 5 2 3 2 5 7 6 8 10 11 13 15 16 16 17 18 19 20 22 23 24 25 27 28 29 29 31 31 32 32 33 34 35 36 35 34
16 15 13 11 10 8 5 4 3 4 5 3 4 6 8 9 10 13 14 15 16 18 18 19 20 21 23 24 25 26 27 28 30 31 32 33 33 33 33 34 35 36 34
16 14 13 13 11 8 5 3 2 1 2 4 5 6 8 9 10 12 13 14 14 16 17 19 20 21 22 24 25 26 26 28 29 29 31 32 32 32 33 33 34 34 33
16 15 16 12 11 9 6 4 3 1 2 4 6 6 7 9 10 11 13 12 13 15 16 18 20 22 23 24 24 25 26 27 29 30 31 31 31 31 32 33 34 33 33
19 16 14 13 10 7 6 3 1 2 4 6 8 7 8 8 9 10 11 12 12 14 16 18 20 21 22 23 24 24 25 26 27 28 29 30 30 31 31 32 33 33 32
18 15 15 12 9 7 4 2 1 3 4 5 6 7 7 8 9 9 11 11 12 14 15 17 19 20 22 23 24 24 25 26 27 28 29 29 30 31 31 31 32 33 32
17 15 14 12 8 6 3 2 2 4 4 4 4 7 6 6 7 8 10 11 12 13 15 17 18 20 21 21 22 24 24 25 25 26 27 28 29 29 30 30 31 32 32
14 12 10 9 8 5 3 2 2 1 3 4 4 6 5 5 6 7 9 10 12 14 15 17 18 19 20 21 22 23 24 23 23 25 25 26 27 29 29 29 30 31 31
13 13 10 8 8 6 5 3 2 2 1 2 3 5 3 4 5 6 8 9 11 13 15 16 17 18 19 20 22 23 24 25 25 25 26 26 27 28 28 29 28 30 30
9 8 9 10 8 7 5 4 3 2 1 4 2 3 3 2 4 5 7 8 10 12 14 15 16 17 18 20 21 22 23 24 25 26 25 25 25 26 27 28 28 29 30
Wind_Direction
178 175 170 175 159 155 157 142 114 87 77 71 59 53 55 50 51 56 52 52 49 46 40 35 27 25 23 22 22 24 20 25 23 24 25 25 23 18 20 21 24 25 27
180 181 175 182 178 171 146 137 109 97 79 68 62 48 51 56 56 58 56 55 45 44 40 30 24 23 20 20 23 21 21 22 22 18 23 22 21 20 21 21 23 26 28
185 171 188 181 184 162 165 130 111 93 77 65 60 54 39 53 57 53 55 47 41 44 38 28 22 19 17 20 23 20 19 19 21 21 20 23 22 22 20 20 20 22 27
187 179 172 189 190 171 157 137 116 84 81 67 63 49 44 44 47 55 50 46 42 38 35 25 18 17 18 19 18 19 18 18 19 18 17 17 19 20 20 16 15 18 22
188 182 169 178 194 173 148 137 103 72 80 82 77 61 50 36 38 53 52 44 39 35 35 23 16 15 19 18 17 14 17 17 15 15 13 15 16 16 15 16 17 19 23
192 194 183 174 173 175 143 129 108 91 90 88 81 73 56 34 30 46 47 43 35 30 30 23 18 13 16 15 14 15 22 15 15 13 13 11 12 14 15 13 14 19 18
200 199 181 189 179 161 150 157 125 107 96 88 77 68 50 34 26 36 39 37 33 31 25 22 20 18 18 18 17 17 17 18 19 17 12 12 12 13 14 13 15 19 19
204 200 190 171 177 176 168 161 132 111 99 78 70 60 49 17 15 24 34 41 34 31 23 24 22 20 19 18 17 17 17 18 18 19 16 13 14 14 18 17 17 20 22
199 186 194 184 170 171 170 148 135 113 89 72 65 59 47 16 10 38 45 46 41 29 24 25 22 21 19 18 16 15 13 13 15 13 13 13 11 17 20 15 14 15 19
182 200 199 184 173 176 164 153 131 108 88 78 61 49 40 28 27 56 60 54 39 26 24 24 22 20 19 19 18 17 16 17 16 15 15 14 16 22 18 16 18 13 15
195 199 203 194 182 164 152 148 122 100 92 82 71 42 36 34 37 39 58 57 37 24 19 18 22 19 22 24 25 21 22 22 19 18 17 15 15 17 15 13 14 17 15
190 195 190 175 175 159 151 149 135 116 107 92 77 55 43 35 32 30 39 47 37 21 14 15 21 31 27 25 23 21 20 20 19 19 19 17 16 16 13 11 11 14 17
187 184 181 188 182 171 161 154 140 128 116 105 96 73 50 28 23 23 30 33 24 19 19 26 30 38 31 25 23 22 22 21 21 19 18 18 18 15 14 12 12 15 18
183 178 183 181 183 198 193 161 143 135 120 117 103 78 46 32 23 24 26 28 24 26 27 28 31 32 28 25 24 22 22 23 23 20 18 17 16 14 14 16 14 14 16
172 179 185 181 166 195 224 230 157 149 129 125 107 84 61 39 37 35 30 26 30 30 29 25 23 22 23 26 26 22 21 20 20 21 18 17 16 16 17 18 16 16 15
182 179 175 165 176 203 210 233 280 267 138 131 113 92 32 53 51 37 28 38 38 35 23 25 25 27 27 27 26 25 24 21 22 22 20 19 18 19 19 20 18 17 17
184 177 176 171 173 163 181 153 158 307 29 91 105 76 67 61 46 35 41 42 39 30 27 25 28 29 28 29 28 25 23 22 24 23 21 21 21 21 21 21 21 24 26
182 182 181 182 195 202 184 164 148 127 116 82 47 67 58 44 37 38 47 44 29 28 31 31 30 30 29 28 25 23 23 22 23 22 21 21 21 24 24 25 27 27 27
186 192 196 207 213 211 204 197 207 187 112 90 60 38 33 27 37 49 44 39 34 32 32 32 34 30 28 26 25 24 25 26 24 24 23 23 24 26 26 28 28 30 31
195 196 205 205 210 221 233 233 231 177 106 89 87 74 47 54 49 39 38 39 36 34 40 37 31 26 26 26 25 27 28 26 25 25 24 24 26 28 28 27 26 30 32
204 206 209 215 219 224 234 234 206 108 102 95 89 74 70 60 49 41 36 33 43 44 40 32 27 25 27 30 28 29 31 30 29 28 28 27 27 29 30 28 27 29 32
212 212 213 214 219 226 240 255 122 107 101 90 78 69 78 55 46 43 36 34 40 42 35 29 27 28 30 30 30 32 31 27 28 27 26 28 28 28 27 27 26 25 26
218 219 223 227 225 228 236 280 138 127 107 84 59 90 88 54 46 43 41 42 43 34 28 28 29 29 31 33 33 33 30 29 30 30 28 30 31 30 26 26 24 21 23
224 224 222 227 224 223 233 237 263 164 122 102 83 99 88 65 52 43 47 44 36 28 26 27 29 32 31 31 33 32 30 32 33 33 33 33 32 27 25 25 23 20 21
240 242 236 226 216 218 226 242 162 144 235 151 98 109 81 64 51 49 46 41 31 28 28 28 30 31 32 31 29 27 27 28 30 32 31 32 33 30 26 25 23 21 21
251 241 239 237 232 233 239 223 247 182 171 148 136 118 101 70 54 57 51 37 30 28 27 26 30 31 31 30 29 27 24 24 26 27 29 31 31 28 27 23 21 21 20